SCP
-2 -1 -1 -0 -0 -0 -0 -0 -0 -0 -0 -0 -0 -0 -0 0 0 0 0 0 0 0 0 0 0 0 0 0 0 0 0 0 0 0 0 0 0 0 0 0 0 0 0
-2 -1 -1 -1 -1 -0 -0 -0 -0 -0 -0 -1 -0 0 0 0 0 1 0 0 0 0 0 0 0 0 0 0 0 0 0 0 0 0 0 0 0 0 0 0 0 0 0
-2 -2 -2 -1 -0 -0 -0 -0 -0 -0 -0 -0 -1 -1 0 1 1 1 0 0 0 0 0 0 0 0 0 0 0 0 0 0 0 0 0 0 0 0 0 0 0 0 0
-2 -2 -1 -1 -1 -0 -1 -1 -1 -0 -0 -0 -0 0 1 1 1 1 0 0 0 0 0 0 0 0 0 0 0 0 0 0 0 0 0 0 0 0 0 0 0 0 0
-0 -1 -1 -1 -1 -0 -0 -1 -1 -1 -0 1 1 1 2 2 1 1 1 0 1 1 0 0 0 0 0 0 0 0 0 0 0 0 0 0 0 0 0 0 0 0 0
0 -0 -0 -0 -1 -0 -0 -0 0 1 2 2 2 2 2 3 1 1 1 1 1 1 0 1 0 0 0 0 0 0 0 0 0 0 0 0 0 0 0 0 0 0 0
1 0 -0 -0 -0 -0 0 -0 0 0 1 2 2 2 2 2 1 0 1 1 1 1 1 1 1 0 0 0 0 0 0 0 0 0 0 0 0 0 0 0 0 0 0
1 1 1 -0 0 0 -0 -0 0 1 1 2 3 4 3 2 0 0 0 1 1 1 1 1 1 0 0 1 0 0 0 0 0 0 0 0 0 0 0 0 0 0 0
2 2 1 0 0 2 1 1 2 3 3 3 3 2 1 1 0 0 0 0 0 0 0 1 1 0 0 0 0 0 0 0 0 0 0 0 0 0 0 0 0 0 0
2 2 2 2 1 2 3 4 6 5 6 2 2 1 1 0 0 0 0 0 0 0 0 0 0 0 0 0 0 0 0 0 0 0 0 0 0 0 0 0 0 0 0
3 10 6 5 4 4 5 5 5 3 2 2 1 1 0 0 1 0 0 0 0 0 0 0 0 0 0 0 0 0 0 0 0 0 0 0 0 0 0 0 0 0 0
11 11 13 9 9 5 3 4 2 4 3 1 1 1 1 1 1 0 0 0 0 0 0 0 0 0 0 0 0 0 0 0 0 0 0 0 0 0 0 0 0 0 0
11 12 10 8 6 4 4 3 3 2 2 2 2 2 2 2 0 0 0 0 0 0 0 0 0 0 0 0 0 0 0 0 0 0 0 0 0 0 0 0 0 0 0
12 11 9 7 5 4 3 3 2 2 2 2 2 2 2 1 0 0 0 0 0 0 0 0 0 0 0 0 0 0 0 0 0 0 0 0 0 0 0 0 0 0 0
9 8 7 6 3 0 0 0 0 0 1 2 2 2 1 1 1 0 0 0 0 0 0 0 0 0 0 0 0 0 0 0 0 0 0 0 0 0 0 0 0 0 0
5 4 4 1 0 0 0 0 0 0 0 0 0 0 0 0 0 0 0 0 0 0 0 0 0 0 0 0 0 0 0 0 0 0 0 0 0 0 0 0 0 0 0
3 2 2 1 1 0 0 0 0 0 0 0 0 0 0 0 0 0 0 0 0 0 0 0 0 0 0 0 0 0 0 0 0 0 0 0 0 0 0 0 0 0 0
2 2 1 1 1 0 0 0 0 0 0 0 0 0 0 0 0 0 0 0 0 0 0 0 0 0 0 0 0 0 0 0 0 0 0 0 0 0 0 0 0 0 0
2 1 1 1 1 1 0 0 0 0 0 0 0 0 0 0 0 0 0 0 0 0 0 0 0 0 0 0 0 0 0 0 0 0 0 0 0 0 0 0 0 0 0
1 1 2 1 2 1 1 1 0 0 0 0 0 0 0 0 0 0 0 0 0 0 0 0 0 0 0 0 0 0 0 0 0 0 0 0 0 0 0 0 0 0 0
1 0 0 0 1 0 0 0 0 0 0 0 0 0 0 0 0 0 0 0 0 0 0 0 0 0 0 0 0 0 0 0 0 0 0 0 0 0 0 0 0 0 0
0 0 0 0 0 0 0 0 0 0 0 0 0 0 0 0 0 0 0 0 0 0 0 0 0 0 0 0 0 0 0 0 0 0 0 0 0 0 0 0 0 0 0
0 0 0 0 0 0 0 0 0 0 0 0 0 0 0 0 0 0 0 0 0 0 0 0 0 0 0 0 0 0 0 0 0 0 0 0 0 0 0 0 0 0 0
0 0 0 0 0 0 0 0 0 0 0 0 0 0 0 0 0 0 0 0 0 0 0 0 0 0 0 0 0 0 0 0 0 0 0 0 0 0 0 0 0 0 0
0 0 0 0 0 0 0 0 0 0 0 0 0 0 0 0 0 0 0 0 0 0 0 0 0 0 0 0 0 0 0 0 0 0 0 0 0 0 0 0 0 0 0
0 0 0 0 0 0 0 0 0 0 0 0 0 0 0 0 0 0 0 0 0 0 0 0 0 0 0 0 0 0 0 0 0 0 0 0 0 0 0 0 0 0 0
Wind_Speed_500mb
86 79 74 73 80 76 79 75 78 61 64 64 59 54 55 50 45 47 40 36 35 36 35 32 31 38 45 35 33 29 20 16 18 21 28 31 30 30 29 33 39 44 46
88 84 78 73 78 81 78 86 75 81 71 60 64 63 60 57 52 53 47 46 40 41 41 38 40 38 36 33 41 38 30 27 29 34 37 36 31 29 35 37 35 39 43
90 87 83 77 79 83 83 82 86 81 82 79 75 75 75 71 65 61 54 50 47 45 44 44 40 46 49 40 36 37 37 33 32 39 44 41 38 34 33 34 42 44 44
94 90 88 85 82 84 82 83 86 85 82 85 84 82 80 78 73 67 59 55 53 54 52 49 46 43 43 46 40 38 32 35 39 43 43 40 46 45 51 51 49 52 58
93 93 92 87 85 85 86 84 82 89 89 82 83 84 83 81 76 71 66 59 61 54 47 50 52 48 44 44 46 43 42 43 44 47 49 49 54 59 58 53 56 61 58
93 91 88 88 87 88 89 86 82 79 81 87 83 81 82 79 76 75 73 64 65 56 46 48 53 54 54 52 49 42 43 45 50 49 53 54 63 56 48 52 57 59 57
98 91 88 87 86 88 88 86 82 78 72 71 69 70 72 73 66 71 71 61 62 58 51 47 54 59 52 47 48 47 46 50 50 48 49 61 53 50 50 53 50 49 58
103 96 88 88 84 83 83 83 76 72 70 66 64 67 66 68 71 68 59 56 57 52 50 53 57 53 50 49 46 42 47 45 46 51 58 52 48 45 47 48 52 55 50
110 101 98 90 89 90 87 80 74 72 68 67 63 57 61 65 64 60 54 56 62 61 52 59 56 50 46 45 43 46 48 50 49 55 45 44 45 47 47 46 51 58 58
113 108 104 94 95 96 87 78 77 68 58 52 56 56 57 51 49 45 43 49 51 56 52 55 57 44 46 43 47 47 48 51 48 40 42 45 46 46 49 51 48 58 57
108 104 99 89 94 89 80 79 69 53 49 54 53 50 43 35 36 33 27 35 38 41 42 43 55 52 49 45 42 46 45 42 37 42 47 49 44 31 28 25 26 31 37
81 82 75 76 74 74 75 56 53 52 50 45 35 33 30 25 27 29 30 36 37 36 38 40 40 35 46 42 34 36 32 31 34 34 43 34 18 22 23 30 36 38 34
77 67 70 70 69 65 58 53 48 44 40 33 31 28 27 29 31 30 31 35 38 37 35 36 30 28 28 33 30 25 25 18 24 30 20 17 22 30 32 38 43 41 42
74 71 70 67 58 51 46 45 42 38 34 33 30 29 27 29 30 29 26 28 34 36 34 35 32 23 20 17 15 17 19 19 21 18 24 22 28 35 40 40 35 42 45
71 67 62 59 59 56 47 41 34 32 30 27 30 27 24 25 20 18 16 16 24 29 33 30 20 9 6 10 19 23 25 23 18 17 20 28 36 36 39 34 33 34 34
50 55 61 62 56 47 45 44 38 31 31 32 29 28 20 15 17 16 12 10 13 19 22 18 14 9 12 23 16 11 12 13 17 25 26 30 32 32 33 28 29 31 35
59 58 55 54 50 49 43 39 38 42 35 28 28 28 20 19 20 19 17 12 13 15 14 15 15 15 17 12 7 5 8 10 16 23 26 33 37 35 23 26 28 31 35
45 47 47 46 41 42 39 39 38 38 41 41 36 31 27 27 27 26 19 15 16 15 16 15 14 13 16 16 16 21 27 28 27 31 36 36 16 13 20 24 25 32 35
39 35 37 38 37 37 41 39 34 38 39 31 33 37 31 26 29 24 19 20 20 20 9 17 19 25 23 24 25 29 31 32 34 28 10 11 12 17 21 22 26 30 34
30 25 24 27 36 42 42 34 32 27 27 36 38 33 26 28 34 25 21 24 20 21 6 22 23 20 18 23 25 29 28 28 19 10 13 12 14 18 20 22 29 28 35
35 36 31 20 41 47 48 40 37 31 33 40 34 24 16 20 32 27 22 20 17 19 21 15 21 26 27 26 24 21 19 12 10 13 17 21 23 15 18 23 22 24 35
20 22 27 42 44 34 32 26 32 29 49 55 40 30 22 25 31 23 18 20 17 23 21 28 29 27 25 21 21 22 20 27 16 22 27 27 24 10 19 21 16 29 32
34 24 36 31 24 33 32 30 24 23 36 38 35 26 29 33 28 23 22 26 25 28 29 26 31 31 25 25 27 31 28 21 19 23 27 30 20 15 11 12 19 27 24
30 23 25 37 37 38 33 28 23 15 17 23 25 24 37 40 36 32 23 22 28 26 24 24 31 35 32 29 32 30 29 20 28 31 28 22 16 13 8 12 18 22 24
16 22 28 32 23 21 19 14 9 6 20 23 17 21 29 43 40 32 27 25 29 26 27 29 33 35 33 23 25 28 28 27 30 33 35 28 14 10 8 16 13 10 22
10 9 13 14 29 16 2 7 12 8 23 21 25 32 26 33 37 25 25 18 19 24 23 26 26 31 28 24 26 25 18 18 24 27 23 17 18 17 9 13 9 11 14
Wind_Direction_500mb
219 221 223 222 220 221 220 220 219 217 220 226 231 236 239 247 249 241 228 230 230 224 232 234 225 201 212 223 219 222 232 237 253 254 270 273 279 289 299 305 307 294 291
218 221 225 225 223 223 222 220 221 221 225 224 229 236 241 244 246 244 233 228 231 226 229 234 231 233 232 224 222 224 234 240 255 267 269 278 275 284 297 293 297 305 290
218 223 225 226 226 225 224 224 225 223 222 229 233 236 243 248 249 249 243 234 235 232 239 242 236 235 240 227 216 218 228 239 253 266 279 281 276 280 280 283 295 292 291
220 223 226 227 227 228 229 226 225 227 226 228 234 239 245 250 252 255 249 240 235 236 238 244 247 243 241 232 231 235 237 249 259 259 272 281 281 287 287 292 290 291 292
218 222 226 229 230 229 231 233 230 228 232 234 235 238 244 248 251 255 254 249 238 234 236 242 244 245 247 238 238 241 247 256 262 268 278 290 292 293 291 298 300 304 303
218 223 226 227 230 230 232 233 236 235 232 236 239 241 246 247 251 256 256 252 241 239 241 246 243 243 246 246 246 251 251 260 271 280 282 289 296 296 300 299 302 306 307
215 220 224 226 228 231 232 234 235 237 238 239 241 245 249 252 265 251 251 247 240 241 245 251 245 246 243 243 245 252 266 270 272 280 277 298 292 293 297 294 301 301 304
211 218 220 224 227 229 231 232 233 236 236 237 240 241 244 250 252 249 240 239 236 241 245 251 251 247 244 247 250 258 268 282 284 289 286 291 290 292 290 295 299 301 303
212 215 219 222 225 227 228 229 231 231 232 236 239 241 248 250 250 254 246 231 235 234 242 254 249 247 249 248 257 269 272 277 281 287 284 287 286 287 290 291 293 294 291
214 215 219 220 224 226 225 226 227 227 233 236 245 245 246 254 261 262 257 243 246 255 259 244 242 241 250 254 261 266 273 283 284 285 285 284 288 290 291 286 290 292 291
210 212 216 219 222 221 220 218 222 223 227 234 235 242 248 250 250 240 234 245 251 256 257 246 240 245 246 255 259 265 273 277 280 286 286 285 290 288 301 294 284 294 302
202 208 205 211 207 211 211 214 218 217 219 227 223 228 236 233 232 227 235 251 253 246 243 245 240 258 248 246 256 277 271 278 297 305 297 289 281 299 291 296 300 306 307
191 192 187 190 192 195 207 218 218 218 203 204 210 221 226 225 232 237 244 245 241 234 238 238 249 252 256 253 276 280 281 290 312 322 311 295 306 297 292 296 297 295 295
181 182 180 184 185 204 211 213 207 197 191 198 199 202 210 221 234 243 247 239 236 237 235 247 255 254 262 265 270 272 267 280 295 300 318 304 289 289 297 302 303 306 309
177 175 178 187 190 186 186 180 181 184 183 189 189 197 211 224 230 208 212 228 230 233 234 234 247 218 254 277 281 289 277 279 288 295 287 275 288 296 304 307 312 317 316
190 178 174 175 177 181 182 174 179 190 185 185 189 196 201 189 174 183 195 188 194 212 222 221 221 280 292 293 262 259 244 260 267 278 280 279 298 308 310 313 316 317 321
170 176 179 178 178 174 181 187 186 173 179 187 188 186 189 199 191 197 187 184 191 201 208 221 246 265 275 261 284 190 225 232 217 235 265 288 297 299 302 313 315 321 322
175 177 175 179 184 181 181 179 183 186 189 187 187 205 214 202 203 194 196 197 200 212 245 254 236 213 222 246 266 274 276 272 267 277 289 298 297 307 308 305 316 326 321
149 160 158 159 166 168 172 170 160 160 193 192 197 205 207 200 193 197 204 203 196 194 229 221 214 232 253 261 271 279 278 274 281 290 297 303 316 307 304 310 325 322 326
149 153 156 185 202 184 177 183 185 176 189 190 192 202 190 194 199 208 206 203 208 196 201 188 206 226 248 275 289 295 289 285 285 287 284 291 293 299 312 322 324 322 339
166 181 181 182 194 186 174 186 199 196 208 188 193 212 209 194 199 201 202 197 201 188 217 244 265 273 279 294 294 289 292 292 261 282 262 276 281 289 319 322 317 331 340
181 198 185 172 175 182 185 183 204 214 201 198 201 192 187 192 198 195 208 223 217 203 234 241 253 260 278 274 275 272 277 285 246 264 265 277 291 263 316 315 324 341 335
184 200 183 161 179 191 170 170 184 166 179 182 183 192 218 202 193 211 218 211 224 236 244 246 268 273 263 274 268 273 285 243 263 262 272 290 275 245 305 324 333 339 337
170 189 196 198 197 181 185 181 176 179 200 208 217 215 210 207 199 218 235 225 218 225 228 246 267 259 261 268 260 271 290 271 260 278 286 289 286 260 279 312 316 325 351
163 150 181 178 164 187 182 194 194 275 229 205 220 220 204 198 205 222 235 251 266 255 258 259 256 250 243 261 297 285 277 260 261 271 280 284 266 204 301 325 308 316 355
177 147 120 129 203 180 207 263 183 196 222 226 216 205 216 213 223 238 228 237 239 229 246 253 247 239 243 273 295 306 291 282 286 282 273 258 219 222 276 323 271 328 339
Wind_Speed_850mb
86 79 74 73 80 76 79 75 78 61 64 64 59 54 55 50 45 47 40 36 35 36 35 32 31 38 45 35 33 29 20 16 18 21 28 31 30 30 29 33 39 44 46
88 84 78 73 78 81 78 86 75 81 71 60 64 63 60 57 52 53 47 46 40 41 41 38 40 38 36 33 41 38 30 27 29 34 37 36 31 29 35 37 35 39 43
90 87 83 77 79 83 83 82 86 81 82 79 75 75 75 71 65 61 54 50 47 45 44 44 40 46 49 40 36 37 37 33 32 39 44 41 38 34 33 34 42 44 44
94 90 88 85 82 84 82 83 86 85 82 85 84 82 80 78 73 67 59 55 53 54 52 49 46 43 43 46 40 38 32 35 39 43 43 40 46 45 51 51 49 52 58
93 93 92 87 85 85 86 84 82 89 89 82 83 84 83 81 76 71 66 59 61 54 47 50 52 48 44 44 46 43 42 43 44 47 49 49 54 59 58 53 56 61 58
93 91 88 88 87 88 89 86 82 79 81 87 83 81 82 79 76 75 73 64 65 56 46 48 53 54 54 52 49 42 43 45 50 49 53 54 63 56 48 52 57 59 57
98 91 88 87 86 88 88 86 82 78 72 71 69 70 72 73 66 71 71 61 62 58 51 47 54 59 52 47 48 47 46 50 50 48 49 61 53 50 50 53 50 49 58
103 96 88 88 84 83 83 83 76 72 70 66 64 67 66 68 71 68 59 56 57 52 50 53 57 53 50 49 46 42 47 45 46 51 58 52 48 45 47 48 52 55 50
110 101 98 90 89 90 87 80 74 72 68 67 63 57 61 65 64 60 54 56 62 61 52 59 56 50 46 45 43 46 48 50 49 55 45 44 45 47 47 46 51 58 58
113 108 104 94 95 96 87 78 77 68 58 52 56 56 57 51 49 45 43 49 51 56 52 55 57 44 46 43 47 47 48 51 48 40 42 45 46 46 49 51 48 58 57
108 104 99 89 94 89 80 79 69 53 49 54 53 50 43 35 36 33 27 35 38 41 42 43 55 52 49 45 42 46 45 42 37 42 47 49 44 31 28 25 26 31 37
81 82 75 76 74 74 75 56 53 52 50 45 35 33 30 25 27 29 30 36 37 36 38 40 40 35 46 42 34 36 32 31 34 34 43 34 18 22 23 30 36 38 34
77 67 70 70 69 65 58 53 48 44 40 33 31 28 27 29 31 30 31 35 38 37 35 36 30 28 28 33 30 25 25 18 24 30 20 17 22 30 32 38 43 41 42
74 71 70 67 58 51 46 45 42 38 34 33 30 29 27 29 30 29 26 28 34 36 34 35 32 23 20 17 15 17 19 19 21 18 24 22 28 35 40 40 35 42 45
71 67 62 59 59 56 47 41 34 32 30 27 30 27 24 25 20 18 16 16 24 29 33 30 20 9 6 10 19 23 25 23 18 17 20 28 36 36 39 34 33 34 34
50 55 61 62 56 47 45 44 38 31 31 32 29 28 20 15 17 16 12 10 13 19 22 18 14 9 12 23 16 11 12 13 17 25 26 30 32 32 33 28 29 31 35
59 58 55 54 50 49 43 39 38 42 35 28 28 28 20 19 20 19 17 12 13 15 14 15 15 15 17 12 7 5 8 10 16 23 26 33 37 35 23 26 28 31 35
45 47 47 46 41 42 39 39 38 38 41 41 36 31 27 27 27 26 19 15 16 15 16 15 14 13 16 16 16 21 27 28 27 31 36 36 16 13 20 24 25 32 35
39 35 37 38 37 37 41 39 34 38 39 31 33 37 31 26 29 24 19 20 20 20 9 17 19 25 23 24 25 29 31 32 34 28 10 11 12 17 21 22 26 30 34
30 25 24 27 36 42 42 34 32 27 27 36 38 33 26 28 34 25 21 24 20 21 6 22 23 20 18 23 25 29 28 28 19 10 13 12 14 18 20 22 29 28 35
35 36 31 20 41 47 48 40 37 31 33 40 34 24 16 20 32 27 22 20 17 19 21 15 21 26 27 26 24 21 19 12 10 13 17 21 23 15 18 23 22 24 35
20 22 27 42 44 34 32 26 32 29 49 55 40 30 22 25 31 23 18 20 17 23 21 28 29 27 25 21 21 22 20 27 16 22 27 27 24 10 19 21 16 29 32
34 24 36 31 24 33 32 30 24 23 36 38 35 26 29 33 28 23 22 26 25 28 29 26 31 31 25 25 27 31 28 21 19 23 27 30 20 15 11 12 19 27 24
30 23 25 37 37 38 33 28 23 15 17 23 25 24 37 40 36 32 23 22 28 26 24 24 31 35 32 29 32 30 29 20 28 31 28 22 16 13 8 12 18 22 24
16 22 28 32 23 21 19 14 9 6 20 23 17 21 29 43 40 32 27 25 29 26 27 29 33 35 33 23 25 28 28 27 30 33 35 28 14 10 8 16 13 10 22
10 9 13 14 29 16 2 7 12 8 23 21 25 32 26 33 37 25 25 18 19 24 23 26 26 31 28 24 26 25 18 18 24 27 23 17 18 17 9 13 9 11 14
Wind_Direction_850mb
219 221 223 222 220 221 220 220 219 217 220 226 231 236 239 247 249 241 228 230 230 224 232 234 225 201 212 223 219 222 232 237 253 254 270 273 279 289 299 305 307 294 291
218 221 225 225 223 223 222 220 221 221 225 224 229 236 241 244 246 244 233 228 231 226 229 234 231 233 232 224 222 224 234 240 255 267 269 278 275 284 297 293 297 305 290
218 223 225 226 226 225 224 224 225 223 222 229 233 236 243 248 249 249 243 234 235 232 239 242 236 235 240 227 216 218 228 239 253 266 279 281 276 280 280 283 295 292 291
220 223 226 227 227 228 229 226 225 227 226 228 234 239 245 250 252 255 249 240 235 236 238 244 247 243 241 232 231 235 237 249 259 259 272 281 281 287 287 292 290 291 292
218 222 226 229 230 229 231 233 230 228 232 234 235 238 244 248 251 255 254 249 238 234 236 242 244 245 247 238 238 241 247 256 262 268 278 290 292 293 291 298 300 304 303
218 223 226 227 230 230 232 233 236 235 232 236 239 241 246 247 251 256 256 252 241 239 241 246 243 243 246 246 246 251 251 260 271 280 282 289 296 296 300 299 302 306 307
215 220 224 226 228 231 232 234 235 237 238 239 241 245 249 252 265 251 251 247 240 241 245 251 245 246 243 243 245 252 266 270 272 280 277 298 292 293 297 294 301 301 304
211 218 220 224 227 229 231 232 233 236 236 237 240 241 244 250 252 249 240 239 236 241 245 251 251 247 244 247 250 258 268 282 284 289 286 291 290 292 290 295 299 301 303
212 215 219 222 225 227 228 229 231 231 232 236 239 241 248 250 250 254 246 231 235 234 242 254 249 247 249 248 257 269 272 277 281 287 284 287 286 287 290 291 293 294 291
214 215 219 220 224 226 225 226 227 227 233 236 245 245 246 254 261 262 257 243 246 255 259 244 242 241 250 254 261 266 273 283 284 285 285 284 288 290 291 286 290 292 291
210 212 216 219 222 221 220 218 222 223 227 234 235 242 248 250 250 240 234 245 251 256 257 246 240 245 246 255 259 265 273 277 280 286 286 285 290 288 301 294 284 294 302
202 208 205 211 207 211 211 214 218 217 219 227 223 228 236 233 232 227 235 251 253 246 243 245 240 258 248 246 256 277 271 278 297 305 297 289 281 299 291 296 300 306 307
191 192 187 190 192 195 207 218 218 218 203 204 210 221 226 225 232 237 244 245 241 234 238 238 249 252 256 253 276 280 281 290 312 322 311 295 306 297 292 296 297 295 295
181 182 180 184 185 204 211 213 207 197 191 198 199 202 210 221 234 243 247 239 236 237 235 247 255 254 262 265 270 272 267 280 295 300 318 304 289 289 297 302 303 306 309
177 175 178 187 190 186 186 180 181 184 183 189 189 197 211 224 230 208 212 228 230 233 234 234 247 218 254 277 281 289 277 279 288 295 287 275 288 296 304 307 312 317 316
190 178 174 175 177 181 182 174 179 190 185 185 189 196 201 189 174 183 195 188 194 212 222 221 221 280 292 293 262 259 244 260 267 278 280 279 298 308 310 313 316 317 321
170 176 179 178 178 174 181 187 186 173 179 187 188 186 189 199 191 197 187 184 191 201 208 221 246 265 275 261 284 190 225 232 217 235 265 288 297 299 302 313 315 321 322
175 177 175 179 184 181 181 179 183 186 189 187 187 205 214 202 203 194 196 197 200 212 245 254 236 213 222 246 266 274 276 272 267 277 289 298 297 307 308 305 316 326 321
149 160 158 159 166 168 172 170 160 160 193 192 197 205 207 200 193 197 204 203 196 194 229 221 214 232 253 261 271 279 278 274 281 290 297 303 316 307 304 310 325 322 326
149 153 156 185 202 184 177 183 185 176 189 190 192 202 190 194 199 208 206 203 208 196 201 188 206 226 248 275 289 295 289 285 285 287 284 291 293 299 312 322 324 322 339
166 181 181 182 194 186 174 186 199 196 208 188 193 212 209 194 199 201 202 197 201 188 217 244 265 273 279 294 294 289 292 292 261 282 262 276 281 289 319 322 317 331 340
181 198 185 172 175 182 185 183 204 214 201 198 201 192 187 192 198 195 208 223 217 203 234 241 253 260 278 274 275 272 277 285 246 264 265 277 291 263 316 315 324 341 335
184 200 183 161 179 191 170 170 184 166 179 182 183 192 218 202 193 211 218 211 224 236 244 246 268 273 263 274 268 273 285 243 263 262 272 290 275 245 305 324 333 339 337
170 189 196 198 197 181 185 181 176 179 200 208 217 215 210 207 199 218 235 225 218 225 228 246 267 259 261 268 260 271 290 271 260 278 286 289 286 260 279 312 316 325 351
163 150 181 178 164 187 182 194 194 275 229 205 220 220 204 198 205 222 235 251 266 255 258 259 256 250 243 261 297 285 277 260 261 271 280 284 266 204 301 325 308 316 355
177 147 120 129 203 180 207 263 183 196 222 226 216 205 216 213 223 238 228 237 239 229 246 253 247 239 243 273 295 306 291 282 286 282 273 258 219 222 276 323 271 328 339